Regional Weather Roundup
Issued by NWS

Home | Current Version | Previous Version | Graphics & Text | Print | Product List | Glossary On
Versions: 1 2 3 4 5 6 7 8 9 10 11 12 13 14 15 16 17 18 19 20 21 22 23 24 25 26 27 28 29 30 31 32 33 34 35 36 37 38 39 40 41 42 43 44 45 46 47 48 49
000
ASUS45 KBOI 050910
RWRID

IDAHO REGIONAL WEATHER ROUNDUP
NATIONAL WEATHER SERVICE BOISE ID
300 AM MDT SUN JUL 05 2015

NOTE: "FAIR" INDICATES FEW OR NO CLOUDS BELOW 12000 FEET
WITH NO SIGNIFICANT WEATHER AND/OR OBSTRUCTIONS TO VISIBILITY

IDZ012-014-051000-
SOUTHWEST IDAHO


CITY           SKY/WX    TMP DP  RH WIND       PRES   REMARKS
BOISE          MOCLDY    79  47  32 NE3       29.81R
CALDWELL       MOCLDY    81  48  32 W12       29.79S
MOUNTAIN HOME  MOCLDY    75  51  42 E2        29.82R
$$

IDZ016-017-051000-
SOUTHCENTRAL IDAHO


CITY           SKY/WX    TMP DP  RH WIND       PRES   REMARKS
BURLEY         CLOUDY    73  52  47 SW6       29.91S
JEROME         CLOUDY    75  50  41 SW8       29.91S
TWIN FALLS     CLOUDY    78  50  37 S14       29.89R
$$

IDZ019>023-051000-
SOUTHEAST IDAHO


CITY           SKY/WX    TMP DP  RH WIND       PRES   REMARKS
IDAHO FALLS    MOCLDY    74  50  42 SW16      29.91R
POCATELLO      CLEAR     79  46  31 SW22G30   29.94R
REXBURG        MOCLDY    73  49  42 S17G25    29.89R
$$

IDZ006-010-011-018-031-032-051000-
CENTRAL IDAHO MOUNTAINS


CITY           SKY/WX    TMP DP  RH WIND       PRES   REMARKS
MCCALL         PTCLDY    61  44  53 NE3       29.94S
HAILEY         PTCLDY    63  46  55 NW9       29.99R
STANLEY          N/A     53  35  50 SE3       30.08S
SALMON         MOCLDY    64  50  59 CALM      29.85R
CHALLIS        MOCLDY    73  35  25 CALM      29.93R
$$

IDZ002-004-006-007-026-051000-
NORTHERN IDAHO


CITY           SKY/WX    TMP DP  RH WIND       PRES   REMARKS
LEWISTON       CLEAR     79  44  28 W5        29.70R
LOWELL           N/A     66  56  70 NW3       29.77R
COEUR D`ALENE  CLEAR     72  41  33 E6        29.76R
MULLAN PASS    CLEAR     68  35  29 W3        30.00S
$$



USA.gov is the U.S. government's official web portal to all federal, state and local government web resources and services.